DW6536 Weather Reports


Display with metric or nautical units.
time (UTC)temp
F
wind
direction
speed
MPH
gust
MPH
rain 1hr
in
rain 24hr
in
rain mn
in
humidity
%
barometer
mb
20260831060026 83 224 1.0 0.0 0.00 0.00 0.00 72 1012.9
20260831054522 83 221 2.0 0.0 0.00 0.00 0.00 71 1012.8
20260831053020 84 122 2.0 0.0 0.00 0.00 0.00 69 1012.8
20260831051523 84 160 1.0 0.0 0.00 0.00 0.00 67 1012.6
20260831050015 84 133 1.0 0.0 0.00 0.00 0.00 66 1012.5
20260831044515 85 147 2.0 0.0 0.00 0.00 0.00 65 1012.4
20260831043014 86 149 2.0 0.0 0.00 0.00 0.00 64 1012.4
20260831041532 86 124 2.0 0.0 0.00 0.00 0.00 62 1012.4
20260831040013 86 136 2.0 0.0 0.00 0.00 0.00 62 1012.4
20260831034512 86 131 2.0 0.0 0.00 0.00 0.00 62 1012.2
20260831033012 87 181 3.0 0.0 0.00 0.00 0.00 62 1012.0
20260831031512 87 140 2.0 0.0 0.00 0.00 0.00 61 1011.9
20260831030012 88 139 3.0 0.0 0.00 0.00 0.00 60 1011.6
20260831024511 88 110 2.0 0.0 0.00 0.00 0.00 61 1011.4
20260831023010 89 153 3.0 0.0 0.00 0.00 0.00 59 1011.3
20260831021511 90 205 3.0 0.0 0.00 0.00 0.00 55 1011.0
20260831020012 90 151 1.0 0.0 0.00 0.00 0.00 49 1010.8
20260831014517 90 45 0.0 0.0 0.00 0.00 0.00 48 1010.4
20260831013009 91 142 1.0 0.0 0.00 0.00 0.00 47 1010.2
20260831011511 91 141 0.0 0.0 0.00 0.00 0.00 47 1010.1
20260831010007 92 109 0.0 0.0 0.00 0.00 0.00 46 1010.2
20260831004506 93 147 1.0 0.0 0.00 0.00 0.00 45 1010.1
20260831003006 93 124 1.0 0.0 0.00 0.00 0.00 45 1010.0
20260831001506 94 142 1.0 0.0 0.00 0.00 0.00 44 1009.9
20260831000006 95 131 2.0 0.0 0.00 0.00 0.00 42 1010.0
20260830234509 96 76 2.0 0.0 0.00 0.00 0.00 43 1010.0
20260830233011 97 141 2.0 0.0 0.00 0.00 0.00 42 1010.0
20260830231504 97 62 2.0 0.0 0.00 0.00 0.00 41 1010.0
20260830230004 97 190 2.0 0.0 0.00 0.00 0.00 40 1010.0
20260830224502 98 92 2.0 0.0 0.00 0.00 0.00 38 1010.1
20260830223133 98 155 3.0 0.0 0.00 0.00 0.00 40 1010.1
20260830221604 98 232 2.0 0.0 0.00 0.00 0.00 41 1010.1
20260830214557 98 95 3.0 0.0 0.00 0.00 0.00 41 1010.4
20260830213055 99 129 2.0 0.0 0.00 0.00 0.00 41 1010.6
20260830211555 99 143 2.0 0.0 0.00 0.00 0.00 40 1010.9
20260830210051 98 283 2.0 0.0 0.00 0.00 0.00 43 1011.2
20260830204548 97 96 2.0 0.0 0.00 0.00 0.00 44 1011.3
20260830203046 98 283 2.0 0.0 0.00 0.00 0.00 44 1011.5
20260830201546 96 278 3.0 0.0 0.00 0.00 0.00 46 1011.6
20260830200144 97 106 2.0 0.0 0.00 0.00 0.00 45 1011.9
20260830194550 97 117 2.0 0.0 0.00 0.00 0.00 46 1012.2
20260830193043 97 166 2.0 0.0 0.00 0.00 0.00 46 1012.5
20260830191535 95 107 3.0 0.0 0.00 0.00 0.00 48 1012.7
20260830190035 95 106 3.0 0.0 0.00 0.00 0.00 48 1013.0
20260830184534 95 126 3.0 0.0 0.00 0.00 0.00 50 1013.1
20260830183029 94 314 3.0 0.0 0.00 0.00 0.00 50 1013.3
20260830181528 93 81 3.0 0.0 0.00 0.00 0.00 53 1013.5
20260830180026 94 213 2.0 0.0 0.00 0.00 0.00 52 1014.0
20260830174527 93 136 2.0 0.0 0.00 0.00 0.00 54 1014.3
20260830173022 92 180 3.0 0.0 0.00 0.00 0.00 56 1014.5
20260830171521 92 262 3.0 0.0 0.00 0.00 0.00 57 1014.7
20260830170021 91 183 2.0 0.0 0.00 0.00 0.00 57 1014.7
20260830164517 91 232 3.0 0.0 0.00 0.00 0.00 58 1014.9
20260830163019 90 119 2.0 0.0 0.00 0.00 0.00 61 1014.9
20260830161515 89 193 2.0 0.0 0.00 0.00 0.00 62 1014.9
20260830160014 89 104 2.0 0.0 0.00 0.00 0.00 61 1014.9
20260830154511 88 218 1.0 0.0 0.00 0.00 0.00 66 1014.8
20260830153006 86 264 1.0 0.0 0.00 0.00 0.00 67 1014.7
20260830151503 85 197 1.0 0.0 0.00 0.00 0.00 69 1014.7
20260830150002 84 203 2.0 0.0 0.00 0.00 0.00 72 1014.6
20260830144501 83 163 2.0 0.0 0.00 0.00 0.00 75 1014.6
20260830143001 81 197 1.0 0.0 0.00 0.00 0.00 78 1014.7
20260830141604 79 236 1.0 0.0 0.00 0.00 0.00 80 1014.7
20260830140058 78 238 1.0 0.0 0.00 0.00 0.00 82 1014.5
20260830134558 77 180 1.0 0.0 0.00 0.00 0.00 84 1014.5
20260830133105 77 233 1.0 0.0 0.00 0.00 0.00 85 1014.4
20260830131556 76 205 0.0 0.0 0.00 0.00 0.00 86 1014.3
20260830130105 75 195 0.0 0.0 0.00 0.00 0.00 87 1014.2
20260830124553 75 243 0.0 0.0 0.00 0.00 0.00 87 1014.2
20260830123057 75 252 0.0 0.0 0.00 0.00 0.00 86 1014.0
20260830121555 75 170 0.0 0.0 0.00 0.00 0.00 86 1013.8
20260830120048 75 185 0.0 0.0 0.00 0.00 0.00 85 1013.7
20260830114546 75 191 0.0 0.0 0.00 0.00 0.00 85 1013.6
20260830113045 76 201 0.0 0.0 0.00 0.00 0.00 84 1013.5
20260830111543 76 170 0.0 0.0 0.00 0.00 0.00 83 1013.5
20260830110055 76 176 0.0 0.0 0.00 0.00 0.00 83 1013.4
20260830104544 76 162 0.0 0.0 0.00 0.00 0.00 82 1013.3
20260830103040 77 143 0.0 0.0 0.00 0.00 0.00 81 1013.3
20260830101537 77 226 0.0 0.0 0.00 0.00 0.00 80 1013.2
20260830100048 77 189 0.0 0.0 0.00 0.00 0.00 79 1013.2
20260830094537 77 270 0.0 0.0 0.00 0.00 0.00 78 1013.1
20260830093034 78 211 1.0 0.0 0.00 0.00 0.00 77 1013.2
20260830091538 78 198 0.0 0.0 0.00 0.00 0.00 77 1013.0
20260830090031 78 128 0.0 0.0 0.00 0.00 0.00 76 1013.2
20260830084555 79 168 0.0 0.0 0.00 0.00 0.00 75 1013.2
20260830083029 79 45 0.0 0.0 0.00 0.00 0.00 75 1013.2
20260830081526 79 143 0.0 0.0 0.00 0.00 0.00 75 1013.3
20260830080025 80 131 0.0 0.0 0.00 0.00 0.00 74 1013.4
20260830074525 80 220 1.0 0.0 0.00 0.00 0.00 73 1013.4
20260830073023 80 108 0.0 0.0 0.00 0.00 0.00 73 1013.6
20260830071521 81 205 1.0 0.0 0.00 0.00 0.00 72 1013.5
20260830070020 81 139 1.0 0.0 0.00 0.00 0.00 72 1013.7
20260830064518 81 217 0.0 0.0 0.00 0.00 0.00 72 1013.6
20260830063017 82 135 1.0 0.0 0.00 0.00 0.00 71 1013.6
20260830061521 82 140 1.0 0.0 0.00 0.00 0.00 70 1013.6